Tracking 34401 objects as of 17-Jun-2026
HD Live streaming from Space Station
objects crossing your sky now

STARLINK-1225

Track STARLINK-1225 now!
10-day predictions
STARLINK-1225 is classified as:


NORAD ID: 45187
Int'l Code: 2020-012K
Perigee: 463.9 km
Apogee: 466.8 km
Inclination: 53.2 °
Period: 93.8 minutes
Semi major axis: 6836 km
RCS: Unknown
Launch date: February 17, 2020
Source: United States (US)
Launch site: AIR FORCE EASTERN TEST RANGE (AFETR)
Your satellite tracking list
Your tracking list is empty




NASA's NSSDC Master Catalog

Two Line Element Set (TLE):
1 45187U 20012K   26167.63625419  .00047252  00000-0  13345-2 0  9996
2 45187  53.1577 298.7345 0002143 284.1953  75.8812 15.35922983350102
Source of the keplerian elements: AFSPC